Zurück zum Katalog

RITE TARGET 1

AktivWissenschaftSSO
NORAD 28454·PAYLOAD·🇯🇵 Japan

Gestartet Dec 14, 2002 von Tanegashima Space Center

Loading…

Nächste Überflüge (nächste 24 Stunden)

TLE

AktuellSource: Space-Track

Epoche: Sep 14, 2026, 03:57 UTC

1 28454U 02056F   26257.16468549  .00000464  00000-0  17145-3 0  9996
2 28454  98.7623 234.2742 0008562 310.9702  49.0742 14.37196541693439

Verfolge RITE TARGET 1 in Echtzeit mit AllMySat

Download on the App Store